Powrót do katalogu

COSMOS 1341

AktywnyMilitariaHEO
NORAD 13080·PAYLOAD·🇷🇺 Russia

Wystrzelony Mar 3, 1982 z Plesetsk Cosmodrome

Loading…

Następne Przeloty (najbliższe 24 godziny)

TLE

ŚwieżeSource: Space-Track

Epoka: Sep 8, 2026, 18:01 UTC

1 13080U 82016A   26251.75101270 -.00000840  00000-0  00000-0 0  9991
2 13080  72.0199 356.7096 5725777 304.2703  14.1040  2.00829714236449

Śledź COSMOS 1341 w czasie rzeczywistym z AllMySat

Download on the App Store